Regional Weather Roundup
Issued by NWS State College, PA

Home | Current Version | Previous Version | Text Only | Print | Product List | Glossary On
Versions: 1 2 3 4 5 6 7 8 9 10 11 12 13 14 15 16 17 18 19 20 21 22 23 24 25 26 27 28 29 30 31 32 33 34 35 36 37 38 39 40 41 42 43 44 45 46 47 48 49 50
000
ASUS41 KCTP 231310
RWRCTP

REGIONAL WEATHER ROUNDUP
NATIONAL WEATHER SERVICE STATE COLLEGE PA
900 AM EDT WED MAY 23 2018

Note: "fair" indicates few or no clouds below 12,000 feet with no
significant weather and/or obstructions to visibility.

* = STATION THAT DOES NOT REPORT PRECIPITATION /E.G. RAIN...SNOW...ETC/
    THUNDER OR FOG.

PAZ002>004-007>009-013>016-020>023-029>032-231400-
WESTERN PENNSYLVANIA

CITY           SKY/WX    TMP DP  RH WIND       PRES   REMARKS
ERIE           CLOUDY    55  52  89 W7        30.13R FOG
MEADVILLE      CLOUDY    53  53 100 NW6       30.13R FOG
FRANKLIN*      CLOUDY    53  51  93 NW5       30.13R
NEW CASTLE     CLOUDY    56  55  97 N7        30.15R
BEAVER COUNTY  CLOUDY    55  52  88 N6        30.13R
BUTLER*        CLOUDY    55  51  86 N6        30.13R
PITTSBURGH INT CLOUDY    59  55  87 N10       30.11R
PITTSBURGH     CLOUDY    57  56  96 N7        30.10R FOG
INDIANA*       CLOUDY    57  55  94 N9        30.13R
LATROBE        PTSUNNY   59  59 100 N12       30.10R FOG
WASHINGTON CO* CLOUDY    59  57  93 N7        30.14R
$$

PAZ004>006-010>012-017>019-024>028-033>037-041-042-045-046-049>053-231400-
CENTRAL PENNSYLVANIA

CITY           SKY/WX    TMP DP  RH WIND       PRES   REMARKS
BRADFORD       CLOUDY    56  54  93 NW13      30.10R
DUBOIS         CLOUDY    55  54  96 W9        30.09R
CLEARFIELD     CLOUDY    61  57  87 NW5       30.08R
JOHNSTOWN      CLOUDY    58  56  93 NW13      30.08R FOG
ALTOONA        CLOUDY    65  56  72 NW8       30.07R
STATE COLLEGE  CLOUDY    64  57  77 NW8       30.04S
WILLIAMSPORT   CLOUDY    66  59  78 NW10      30.00R
SELINSGROVE    PTSUNNY   69  63  81 NW6       30.00R
FT INDIANTOWN  MOSUNNY   67  67 100 CALM      29.98R
CAPITAL CITY   FAIR      74  60  61 W14G20    29.98R
HARRISBURG     FAIR      70  62  76 NW9       29.97S
YORK           FAIR      72  63  73 NW13      29.99R
$$

PAZ038>040-043-044-047-048-054-055-060>062-067>071-231400-
EASTERN PENNSYLVANIA

CITY           SKY/WX    TMP DP  RH WIND       PRES   REMARKS
SCRANTON       CLOUDY    62  60  93 NW10      29.99R
MOUNT POCONO   CLOUDY    60  59  96 NW9       29.98S
ALLENTOWN      PTSUNNY   67  62  84 W6        29.96R
QUAKERTOWN*    PTSUNNY   66  66 100 NW6       29.97R
READING        FOG       67  65  93 NW6       29.96S VSB 3/4
LANCASTER      FAIR      72  66  81 W8        29.98R
COATESVILLE    FAIR      68  66  94 NW13      29.99R FOG
POTTSTOWN      CLOUDY    65  65 100 NW3       29.98R FOG
BLUE BELL      CLOUDY    63  63 100 NW3       29.97S
DOYLESTOWN     NOT AVBL
WILLOW GROVE   NOT AVBL
NORTH PHILA    NOT AVBL
PHILADELPHIA   CLOUDY    66  63  90 NW6       29.95S FOG
$$



USA.gov is the U.S. government's official web portal to all federal, state and local government web resources and services.